Location: Corralito
(10.2667°N, 66.9500°W)
Time: 02:29:58
(UTC+00:00)

Cosmos 1331 Rocket - Pass Details

Date: 10 December 2023
Orbit: 748 x 775 km, 74.0° (Epoch: 22 February)

Event Time Altitude Azimuth Distance (km) Brightness Sun altitude
Rises 23:07:00 0° 218° (SW) 3,240 8.3 -14.6°
Reaches altitude 10° 23:09:47 10° 232° (SW) 2,315 7.7 -15.2°
Maximum altitude 23:13:59 24° 285° (WNW) 1,554 6.2 -16.2°
Drops below altitude 10° 23:18:11 10° 338° (NNW) 2,315 6.5 -17.1°
Sets 23:21:00 0° 352° (N) 3,241 7.1 -17.8°
